START_TIME,STEP,MOV.,H8,t_acc.,H43,t_acc.,M25,t_acc.,H9,t_acc.
1979-07-16 03:00:29.690 ,1,0,0.,12.0,0.,12.0,0.,12.0,0.,12.0
1979-07-16 03:00:41.690 ,1,0,0.,12.0,0.,12.0,0.,12.0,0.,12.0
1979-07-16 03:00:53.690 ,2,0,0.,12.0,0.,12.0,0.,12.0,0.,12.0
1979-07-16 03:01:05.690 ,2,0,0.,12.0,0.,12.0,0.,12.0,0.,12.0
1979-07-16 03:01:17.690 ,2,0,0.,12.0,0.,12.0,0.,12.0,0.,12.0
1979-07-16 03:01:29.690 ,2,0,0.,12.0,0.,12.0,0.,12.0,0.,12.0
1979-07-16 03:01:41.690 ,3,0,0.,12.0,0.,12.0,0.,12.0,0.,12.0
1979-07-16 03:01:53.690 ,3,0,0.,12.0,0.,12.0,0.,12.0,0.,12.0
1979-07-16 03:02:05.690 ,3,0,0.,12.0,0.,12.0,0.,12.0,0.,12.0
1979-07-16 03:02:17.690 ,3,0,1.,12.0,0.,12.0,0.,12.0,0.,12.0
1979-07-16 03:02:29.690 ,4,0,0.,12.0,0.,12.0,0.,12.0,0.,12.0
1979-07-16 03:02:41.690 ,4,0,0.,12.0,0.,12.0,0.,12.0,0.,12.0
1979-07-16 03:02:53.690 ,4,0,0.,12.0,0.,12.0,0.,12.0,0.,12.0
1979-07-16 03:03:05.690 ,4,0,0.,12.0,0.,12.0,0.,12.0,0.,12.0
1979-07-16 03:03:17.690 ,5,0,0.,12.0,0.,12.0,0.,12.0,0.,12.0
1979-07-16 03:03:29.690 ,5,0,0.,12.0,0.,12.0,0.,12.0,0.,12.0
1979-07-16 03:03:41.690 ,5,0,0.,12.0,0.,12.0,0.,12.0,0.,12.0
1979-07-16 03:03:53.690 ,5,0,0.,12.0,0.,12.0,0.,12.0,0.,12.0
1979-07-16 03:04:05.690 ,6,0,0.,12.0,0.,12.0,0.,12.0,0.,12.0
1979-07-16 03:04:17.690 ,6,0,0.,12.0,0.,12.0,0.,12.0,0.,12.0
1979-07-16 03:04:29.690 ,6,0,0.,12.0,0.,12.0,0.,12.0,0.,12.0
1979-07-16 03:04:41.690 ,6,0,0.,12.0,0.,12.0,0.,12.0,0.,12.0
1979-07-16 03:04:53.690 ,7,0,1.,12.0,0.,12.0,0.,12.0,0.,12.0
1979-07-16 03:05:05.690 ,7,0,0.,12.0,0.,12.0,0.,12.0,0.,12.0
1979-07-16 03:05:17.690 ,7,0,0.,12.0,0.,12.0,0.,12.0,0.,12.0
1979-07-16 03:05:29.690 ,7,0,0.,12.0,0.,12.0,0.,12.0,0.,12.0
1979-07-16 03:05:41.690 ,7,0,0.,12.0,0.,12.0,0.,12.0,0.,12.0
1979-07-16 03:05:53.690 ,7,0,0.,12.0,0.,12.0,0.,12.0,0.,12.0
1979-07-16 03:06:05.690 ,7,0,0.,12.0,0.,12.0,0.,12.0,0.,12.0
1979-07-16 03:06:17.690 ,7,0,0.,12.0,0.,12.0,0.,12.0,0.,12.0
1979-07-16 03:06:29.690 ,6,0,0.,12.0,0.,12.0,0.,12.0,0.,12.0
1979-07-16 03:06:41.690 ,6,0,1.,12.0,0.,12.0,0.,12.0,0.,12.0
1979-07-16 03:06:53.690 ,6,0,0.,12.0,0.,12.0,0.,12.0,0.,12.0
1979-07-16 03:07:05.690 ,6,0,0.,12.0,0.,12.0,0.,12.0,0.,12.0
1979-07-16 03:07:17.690 ,5,0,0.,12.0,0.,12.0,0.,12.0,0.,12.0
1979-07-16 03:07:29.690 ,5,0,0.,12.0,0.,12.0,0.,12.0,0.,12.0
1979-07-16 03:07:41.690 ,5,0,0.,12.0,0.,12.0,0.,12.0,0.,12.0
1979-07-16 03:07:53.690 ,5,0,0.,12.0,0.,12.0,0.,12.0,0.,12.0
1979-07-16 03:08:05.690 ,4,0,0.,12.0,0.,12.0,0.,12.0,0.,12.0
1979-07-16 03:08:17.690 ,4,0,0.,12.0,0.,12.0,0.,12.0,0.,12.0
1979-07-16 03:08:29.690 ,4,0,0.,12.0,0.,12.0,0.,12.0,0.,12.0
1979-07-16 03:08:41.690 ,4,0,0.,12.0,0.,12.0,0.,12.0,0.,12.0
1979-07-16 03:08:53.690 ,3,0,0.,12.0,0.,12.0,0.,12.0,0.,12.0
1979-07-16 03:09:05.690 ,3,0,0.,12.0,0.,12.0,0.,12.0,0.,12.0
1979-07-16 03:09:17.690 ,3,0,0.,12.0,0.,12.0,0.,12.0,0.,12.0
1979-07-16 03:09:29.690 ,3,0,0.,12.0,0.,12.0,0.,12.0,0.,12.0
1979-07-16 03:09:41.690 ,2,0,0.,12.0,0.,12.0,0.,12.0,0.,12.0
1979-07-16 03:09:53.690 ,2,0,0.,12.0,0.,12.0,0.,12.0,0.,12.0
1979-07-16 03:10:05.690 ,2,0,0.,12.0,0.,12.0,0.,12.0,0.,12.0
1979-07-16 03:10:17.690 ,2,0,0.,12.0,0.,12.0,0.,12.0,0.,12.0
1979-07-16 03:10:29.690 ,1,0,1.,12.0,0.,12.0,0.,12.0,0.,12.0
1979-07-16 03:10:41.690 ,1,0,0.,12.0,0.,12.0,0.,12.0,0.,12.0
1979-07-16 03:10:53.690 ,1,0,0.,12.0,0.,12.0,0.,12.0,0.,12.0
1979-07-16 03:11:05.690 ,1,0,0.,12.0,0.,12.0,0.,12.0,0.,12.0
1979-07-16 03:11:17.690 ,0,0,0.,12.0,0.,12.0,0.,12.0,0.,12.0
1979-07-16 03:11:29.690 ,0,0,0.,12.0,0.,12.0,0.,12.0,0.,12.0
1979-07-16 03:11:41.690 ,0,0,0.,12.0,0.,12.0,0.,12.0,0.,12.0
1979-07-16 03:11:53.690 ,0,0,0.,12.0,0.,12.0,0.,12.0,0.,12.0
1979-07-16 03:12:05.690 ,0,0,0.,12.0,0.,12.0,0.,12.0,0.,12.0
1979-07-16 03:12:17.690 ,0,0,0.,12.0,0.,12.0,0.,12.0,0.,12.0
1979-07-16 03:12:29.690 ,0,0,0.,12.0,0.,12.0,0.,12.0,0.,12.0
1979-07-16 03:12:41.690 ,0,0,0.,12.0,0.,12.0,0.,12.0,0.,12.0
1979-07-16 03:12:53.690 ,1,0,0.,12.0,0.,12.0,0.,12.0,0.,12.0
1979-07-16 03:13:05.690 ,1,0,0.,12.0,0.,12.0,0.,12.0,0.,12.0
1979-07-16 03:13:17.690 ,1,0,1.,12.0,0.,12.0,0.,12.0,0.,12.0
1979-07-16 03:13:29.690 ,1,0,0.,12.0,0.,12.0,0.,12.0,0.,12.0
1979-07-16 03:13:41.690 ,2,0,0.,12.0,0.,12.0,0.,12.0,0.,12.0
1979-07-16 03:13:53.690 ,2,0,0.,12.0,0.,12.0,0.,12.0,0.,12.0
1979-07-16 03:14:05.690 ,2,0,0.,12.0,0.,12.0,0.,12.0,0.,12.0
1979-07-16 03:14:17.690 ,2,0,0.,12.0,0.,12.0,0.,12.0,0.,12.0
1979-07-16 03:14:29.690 ,3,0,0.,12.0,0.,12.0,0.,12.0,0.,12.0
1979-07-16 03:14:41.690 ,3,0,0.,12.0,0.,12.0,0.,12.0,0.,12.0
1979-07-16 03:14:53.690 ,3,0,0.,12.0,0.,12.0,0.,12.0,0.,12.0
1979-07-16 03:15:05.690 ,3,0,0.,12.0,0.,12.0,0.,12.0,0.,12.0
1979-07-16 03:15:17.690 ,4,0,0.,12.0,0.,12.0,0.,12.0,0.,12.0
1979-07-16 03:15:29.690 ,4,0,0.,12.0,0.,12.0,0.,12.0,0.,12.0
1979-07-16 03:15:41.690 ,4,0,0.,12.0,0.,12.0,0.,12.0,0.,12.0
1979-07-16 03:15:53.690 ,4,0,0.,12.0,0.,12.0,0.,12.0,0.,12.0
1979-07-16 03:16:05.690 ,5,0,0.,12.0,0.,12.0,0.,12.0,0.,12.0
1979-07-16 03:16:17.690 ,5,0,0.,12.0,0.,12.0,0.,12.0,0.,12.0
1979-07-16 03:16:29.690 ,5,0,0.,12.0,0.,12.0,0.,12.0,0.,12.0
1979-07-16 03:16:41.690 ,5,0,0.,12.0,0.,12.0,0.,12.0,0.,12.0
1979-07-16 03:16:53.690 ,6,0,0.,12.0,0.,12.0,0.,12.0,0.,12.0
1979-07-16 03:17:05.690 ,6,0,0.,12.0,0.,12.0,0.,12.0,0.,12.0
1979-07-16 03:17:17.690 ,6,0,0.,12.0,0.,12.0,0.,12.0,0.,12.0
1979-07-16 03:17:29.690 ,6,0,0.,12.0,0.,12.0,0.,12.0,0.,12.0
1979-07-16 03:17:41.690 ,7,0,0.,12.0,0.,12.0,0.,12.0,0.,12.0
1979-07-16 03:17:53.690 ,7,0,0.,12.0,0.,12.0,0.,12.0,0.,12.0
1979-07-16 03:18:05.690 ,7,0,0.,12.0,0.,12.0,0.,12.0,0.,12.0
1979-07-16 03:18:17.690 ,7,0,0.,12.0,0.,12.0,0.,12.0,0.,12.0
1979-07-16 03:18:29.690 ,7,0,0.,12.0,0.,12.0,0.,12.0,0.,12.0
1979-07-16 03:18:41.690 ,7,0,0.,12.0,0.,12.0,0.,12.0,0.,12.0
1979-07-16 03:18:53.690 ,7,0,0.,12.0,0.,12.0,0.,12.0,0.,12.0
1979-07-16 03:19:05.690 ,7,0,0.,12.0,0.,12.0,0.,12.0,0.,12.0
1979-07-16 03:19:17.690 ,6,0,0.,12.0,0.,12.0,0.,12.0,0.,12.0
1979-07-16 03:19:29.690 ,6,0,0.,12.0,0.,12.0,0.,12.0,0.,12.0
1979-07-16 03:19:41.690 ,6,0,0.,12.0,0.,12.0,0.,12.0,0.,12.0
1979-07-16 03:19:53.690 ,6,0,0.,12.0,0.,12.0,0.,12.0,0.,12.0
1979-07-16 03:20:05.690 ,5,0,0.,12.0,0.,12.0,0.,12.0,0.,12.0
1979-07-16 03:20:17.690 ,5,0,1.,12.0,0.,12.0,0.,12.0,0.,12.0
1979-07-16 03:20:29.690 ,5,0,0.,12.0,0.,12.0,0.,12.0,0.,12.0
1979-07-16 03:20:41.690 ,5,0,0.,12.0,0.,12.0,0.,12.0,0.,12.0
1979-07-16 03:20:53.690 ,4,0,0.,12.0,0.,12.0,0.,12.0,0.,12.0
1979-07-16 03:21:05.690 ,4,0,0.,12.0,0.,12.0,0.,12.0,0.,12.0
1979-07-16 03:21:17.690 ,0,0,0.,12.0,0.,12.0,0.,12.0,0.,12.0
1979-07-16 03:21:29.690 ,0,0,0.,12.0,0.,12.0,0.,12.0,0.,12.0
1979-07-16 03:21:47.690 ,0,0,0.,12.0,0.,12.0,0.,12.0,0.,12.0
1979-07-16 03:21:59.690 ,0,0,0.,12.0,0.,12.0,0.,12.0,0.,12.0
1979-07-16 03:22:05.690 ,0,0,0.,12.0,0.,12.0,0.,12.0,0.,12.0
1979-07-16 03:22:17.690 ,0,0,0.,12.0,0.,12.0,0.,12.0,0.,12.0
1979-07-16 03:22:29.690 ,2,0,0.,12.0,0.,12.0,0.,12.0,0.,12.0
1979-07-16 03:22:41.690 ,2,0,0.,12.0,0.,12.0,0.,12.0,0.,12.0
1979-07-16 03:22:53.690 ,2,0,0.,12.0,0.,12.0,0.,12.0,0.,12.0
1979-07-16 03:23:05.690 ,2,0,0.,12.0,0.,12.0,0.,12.0,0.,12.0
1979-07-16 03:23:17.690 ,1,0,0.,12.0,0.,12.0,0.,12.0,0.,12.0
1979-07-16 03:23:29.690 ,1,0,0.,12.0,0.,12.0,0.,12.0,0.,12.0
1979-07-16 03:23:41.690 ,1,0,0.,12.0,0.,12.0,0.,12.0,0.,12.0
1979-07-16 03:23:53.690 ,1,0,0.,12.0,0.,12.0,0.,12.0,0.,12.0
1979-07-16 03:24:05.690 ,0,0,0.,12.0,0.,12.0,0.,12.0,0.,12.0
1979-07-16 03:24:17.690 ,0,0,0.,12.0,0.,12.0,0.,12.0,0.,12.0
1979-07-16 03:24:29.690 ,0,0,0.,12.0,0.,12.0,0.,12.0,0.,12.0
1979-07-16 03:24:41.690 ,0,0,0.,12.0,0.,12.0,0.,12.0,0.,12.0
1979-07-16 03:24:53.690 ,0,0,0.,12.0,0.,12.0,0.,12.0,0.,12.0
1979-07-16 03:25:05.690 ,0,0,0.,12.0,0.,12.0,0.,12.0,0.,12.0
1979-07-16 03:25:17.690 ,0,0,0.,12.0,0.,12.0,0.,12.0,0.,12.0
1979-07-16 03:25:29.690 ,0,0,0.,12.0,0.,12.0,0.,12.0,0.,12.0
1979-07-16 03:25:41.690 ,1,0,0.,12.0,0.,12.0,0.,12.0,0.,12.0
1979-07-16 03:25:53.690 ,1,0,0.,12.0,0.,12.0,0.,12.0,0.,12.0
1979-07-16 03:26:05.690 ,1,0,1.,12.0,0.,12.0,0.,12.0,0.,12.0
1979-07-16 03:26:17.690 ,1,0,0.,12.0,0.,12.0,0.,12.0,0.,12.0
1979-07-16 03:26:29.690 ,2,0,0.,12.0,0.,12.0,0.,12.0,0.,12.0
1979-07-16 03:26:41.690 ,2,0,0.,12.0,0.,12.0,0.,12.0,0.,12.0
1979-07-16 03:26:53.690 ,2,0,0.,12.0,0.,12.0,0.,12.0,0.,12.0
1979-07-16 03:27:05.690 ,2,0,0.,12.0,0.,12.0,0.,12.0,0.,12.0
1979-07-16 03:27:17.690 ,3,0,0.,12.0,0.,12.0,0.,12.0,0.,12.0
1979-07-16 03:27:29.690 ,3,0,0.,12.0,0.,12.0,0.,12.0,0.,12.0
1979-07-16 03:27:41.690 ,3,0,0.,12.0,0.,12.0,0.,12.0,0.,12.0
1979-07-16 03:27:53.690 ,3,0,0.,12.0,0.,12.0,0.,12.0,0.,12.0
1979-07-16 03:28:05.690 ,4,0,0.,12.0,0.,12.0,0.,12.0,0.,12.0
1979-07-16 03:28:17.690 ,4,0,0.,12.0,0.,12.0,0.,12.0,0.,12.0
1979-07-16 03:28:29.690 ,4,0,0.,12.0,0.,12.0,0.,12.0,0.,12.0
1979-07-16 03:28:41.690 ,4,0,0.,12.0,0.,12.0,0.,12.0,0.,12.0
1979-07-16 03:28:53.690 ,5,0,0.,12.0,0.,12.0,0.,12.0,0.,12.0
1979-07-16 03:29:05.690 ,5,0,0.,12.0,0.,12.0,0.,12.0,0.,12.0
1979-07-16 03:29:17.690 ,5,0,1.,12.0,0.,12.0,0.,12.0,0.,12.0
1979-07-16 03:29:29.690 ,5,0,0.,12.0,0.,12.0,0.,12.0,0.,12.0
1979-07-16 03:29:41.690 ,6,0,0.,12.0,0.,12.0,0.,12.0,0.,12.0
1979-07-16 03:29:53.690 ,6,0,0.,12.0,0.,12.0,0.,12.0,0.,12.0
1979-07-16 03:30:05.690 ,6,0,0.,12.0,0.,12.0,0.,12.0,0.,12.0
1979-07-16 03:30:17.690 ,6,0,0.,12.0,0.,12.0,0.,12.0,0.,12.0
1979-07-16 03:30:29.690 ,7,0,0.,12.0,0.,12.0,0.,12.0,0.,12.0
1979-07-16 03:30:41.690 ,7,0,0.,12.0,0.,12.0,0.,12.0,0.,12.0
1979-07-16 03:30:53.690 ,7,0,0.,12.0,0.,12.0,0.,12.0,0.,12.0
1979-07-16 03:31:05.690 ,7,0,0.,12.0,0.,12.0,0.,12.0,0.,12.0
1979-07-16 03:31:17.690 ,3,1,0.,12.0,0.,12.0,0.,12.0,0.,12.0
1979-07-16 03:31:29.690 ,3,1,0.,12.0,0.,12.0,0.,12.0,0.,12.0
1979-07-16 03:31:41.690 ,0,1,0.,12.0,0.,12.0,0.,12.0,0.,12.0
1979-07-16 03:31:53.690 ,0,1,0.,12.0,0.,12.0,0.,12.0,0.,12.0
1979-07-16 03:32:05.690 ,4,1,0.,12.0,0.,12.0,0.,12.0,0.,12.0
1979-07-16 03:32:17.690 ,4,1,0.,12.0,0.,12.0,0.,12.0,0.,12.0
1979-07-16 03:32:29.690 ,7,1,0.,12.0,0.,12.0,0.,12.0,0.,12.0
1979-07-16 03:32:41.690 ,7,1,0.,12.0,0.,12.0,0.,12.0,0.,12.0
1979-07-16 03:32:53.690 ,3,1,0.,12.0,0.,12.0,0.,12.0,0.,12.0
1979-07-16 03:33:05.690 ,3,1,0.,12.0,0.,12.0,0.,12.0,0.,12.0
1979-07-16 03:33:17.690 ,0,1,0.,12.0,0.,12.0,0.,12.0,0.,12.0
1979-07-16 03:33:29.690 ,0,1,0.,12.0,0.,12.0,0.,12.0,0.,12.0
1979-07-16 03:33:41.690 ,4,1,0.,12.0,0.,12.0,0.,12.0,0.,12.0
1979-07-16 03:33:53.690 ,4,1,0.,12.0,0.,12.0,0.,12.0,0.,12.0
1979-07-16 03:34:05.690 ,7,1,0.,12.0,0.,12.0,0.,12.0,0.,12.0
1979-07-16 03:34:17.690 ,7,1,0.,12.0,0.,12.0,0.,12.0,0.,12.0
1979-07-16 03:34:29.690 ,3,1,0.,12.0,0.,12.0,0.,12.0,0.,12.0
1979-07-16 03:34:41.690 ,3,1,0.,12.0,0.,12.0,0.,12.0,0.,12.0
1979-07-16 03:34:53.690 ,0,1,0.,12.0,0.,12.0,0.,12.0,0.,12.0
1979-07-16 03:35:05.690 ,0,1,0.,12.0,0.,12.0,0.,12.0,0.,12.0
1979-07-16 03:35:17.690 ,4,1,1.,12.0,0.,12.0,0.,12.0,0.,12.0
1979-07-16 03:35:29.690 ,4,1,0.,12.0,0.,12.0,0.,12.0,0.,12.0
1979-07-16 03:35:41.690 ,7,1,0.,12.0,0.,12.0,0.,12.0,0.,12.0
1979-07-16 03:35:53.690 ,7,1,0.,12.0,0.,12.0,0.,12.0,0.,12.0
1979-07-16 03:36:05.690 ,3,1,0.,12.0,0.,12.0,0.,12.0,0.,12.0
1979-07-16 03:36:17.690 ,3,1,0.,12.0,0.,12.0,0.,12.0,0.,12.0
1979-07-16 03:36:29.690 ,0,1,0.,12.0,0.,12.0,0.,12.0,0.,12.0
1979-07-16 03:36:41.690 ,0,1,0.,12.0,0.,12.0,0.,12.0,0.,12.0
1979-07-16 03:36:53.690 ,4,1,0.,12.0,0.,12.0,0.,12.0,0.,12.0
1979-07-16 03:37:05.690 ,4,1,0.,12.0,0.,12.0,0.,12.0,0.,12.0
1979-07-16 03:37:17.690 ,7,1,0.,12.0,0.,12.0,0.,12.0,0.,12.0
1979-07-16 03:37:29.690 ,7,1,0.,12.0,0.,12.0,0.,12.0,0.,12.0
1979-07-16 03:37:41.690 ,3,1,0.,12.0,0.,12.0,0.,12.0,0.,12.0
1979-07-16 03:37:53.690 ,3,1,0.,12.0,0.,12.0,0.,12.0,0.,12.0
1979-07-16 03:38:05.690 ,0,1,0.,12.0,0.,12.0,0.,12.0,0.,12.0
1979-07-16 03:38:17.690 ,0,1,0.,12.0,0.,12.0,0.,12.0,0.,12.0
1979-07-16 03:38:29.690 ,4,1,0.,12.0,0.,12.0,0.,12.0,0.,12.0
1979-07-16 03:38:41.690 ,4,1,0.,12.0,0.,12.0,0.,12.0,0.,12.0
1979-07-16 03:38:53.690 ,7,1,0.,12.0,0.,12.0,0.,12.0,0.,12.0
1979-07-16 03:39:05.690 ,7,1,0.,12.0,0.,12.0,0.,12.0,0.,12.0
1979-07-16 03:39:17.690 ,3,1,0.,12.0,0.,12.0,0.,12.0,0.,12.0
1979-07-16 03:39:29.690 ,3,1,0.,12.0,0.,12.0,0.,12.0,0.,12.0
1979-07-16 03:39:41.690 ,0,1,0.,12.0,0.,12.0,0.,12.0,0.,12.0
1979-07-16 03:39:53.690 ,0,1,0.,12.0,0.,12.0,0.,12.0,0.,12.0
1979-07-16 03:40:05.690 ,4,1,0.,12.0,0.,12.0,0.,12.0,0.,12.0
1979-07-16 03:40:17.690 ,4,1,0.,12.0,0.,12.0,0.,12.0,0.,12.0
1979-07-16 03:40:29.690 ,7,1,0.,12.0,0.,12.0,0.,12.0,0.,12.0
1979-07-16 03:40:41.690 ,7,1,0.,12.0,0.,12.0,0.,12.0,0.,12.0
1979-07-16 03:40:53.690 ,3,1,0.,12.0,0.,12.0,0.,12.0,0.,12.0
1979-07-16 03:41:05.690 ,3,1,0.,12.0,0.,12.0,0.,12.0,0.,12.0
1979-07-16 03:41:17.690 ,0,1,0.,12.0,0.,12.0,0.,12.0,0.,12.0
1979-07-16 03:41:29.690 ,0,1,0.,12.0,0.,12.0,0.,12.0,0.,12.0
1979-07-16 03:41:41.690 ,0,0,0.,12.0,0.,12.0,0.,12.0,0.,12.0
1979-07-16 03:41:53.690 ,0,0,0.,12.0,0.,12.0,0.,12.0,0.,12.0
1979-07-16 03:42:05.690 ,0,0,0.,12.0,0.,12.0,0.,12.0,0.,12.0
1979-07-16 03:42:17.690 ,0,0,0.,12.0,0.,12.0,0.,12.0,0.,12.0
1979-07-16 03:42:29.690 ,5,0,0.,12.0,0.,12.0,0.,12.0,0.,12.0
1979-07-16 03:42:41.690 ,5,0,1.,12.0,0.,12.0,0.,12.0,0.,12.0
1979-07-16 03:42:53.690 ,5,0,0.,12.0,0.,12.0,0.,12.0,0.,12.0
1979-07-16 03:43:05.690 ,5,0,0.,12.0,0.,12.0,0.,12.0,0.,12.0
1979-07-16 03:43:17.690 ,4,0,0.,12.0,0.,12.0,0.,12.0,0.,12.0
1979-07-16 03:43:29.690 ,4,0,0.,12.0,0.,12.0,0.,12.0,0.,12.0
1979-07-16 03:43:41.690 ,4,0,0.,12.0,0.,12.0,0.,12.0,0.,12.0
1979-07-16 03:43:53.690 ,4,0,0.,12.0,0.,12.0,0.,12.0,0.,12.0
1979-07-16 03:44:05.690 ,3,0,0.,12.0,0.,12.0,0.,12.0,0.,12.0
1979-07-16 03:44:17.690 ,3,0,0.,12.0,0.,12.0,0.,12.0,0.,12.0
1979-07-16 03:44:29.690 ,3,0,0.,12.0,0.,12.0,0.,12.0,0.,12.0
1979-07-16 03:44:41.690 ,3,0,0.,12.0,0.,12.0,0.,12.0,0.,12.0
1979-07-16 03:44:53.690 ,2,0,0.,12.0,0.,12.0,0.,12.0,0.,12.0
1979-07-16 03:45:05.690 ,2,0,0.,12.0,0.,12.0,0.,12.0,0.,12.0
1979-07-16 03:45:17.690 ,2,0,0.,12.0,0.,12.0,0.,12.0,0.,12.0
1979-07-16 03:45:29.690 ,2,0,0.,12.0,0.,12.0,0.,12.0,0.,12.0
1979-07-16 03:45:41.690 ,1,0,0.,12.0,0.,12.0,0.,12.0,0.,12.0
1979-07-16 03:45:53.690 ,1,0,0.,12.0,0.,12.0,0.,12.0,0.,12.0
1979-07-16 03:46:05.690 ,1,0,0.,12.0,0.,12.0,0.,12.0,0.,12.0
1979-07-16 03:46:17.690 ,1,0,0.,12.0,0.,12.0,0.,12.0,0.,12.0
1979-07-16 03:46:29.690 ,0,0,0.,12.0,0.,12.0,0.,12.0,0.,12.0
1979-07-16 03:46:41.690 ,0,0,0.,12.0,0.,12.0,0.,12.0,0.,12.0
1979-07-16 03:46:53.690 ,0,0,0.,12.0,0.,12.0,0.,12.0,0.,12.0
1979-07-16 03:47:05.690 ,0,0,0.,12.0,0.,12.0,0.,12.0,0.,12.0
1979-07-16 03:47:17.690 ,0,0,0.,12.0,0.,12.0,0.,12.0,0.,12.0
1979-07-16 03:47:29.690 ,0,0,0.,12.0,0.,12.0,0.,12.0,0.,12.0
1979-07-16 03:47:41.690 ,0,0,0.,12.0,0.,12.0,0.,12.0,0.,12.0
1979-07-16 03:47:53.690 ,0,0,0.,12.0,0.,12.0,0.,12.0,0.,12.0
1979-07-16 03:48:05.690 ,1,0,0.,12.0,0.,12.0,0.,12.0,0.,12.0
1979-07-16 03:48:17.690 ,1,0,0.,12.0,0.,12.0,0.,12.0,0.,12.0
1979-07-16 03:48:29.690 ,1,0,0.,12.0,0.,12.0,0.,12.0,0.,12.0
1979-07-16 03:48:41.690 ,1,0,0.,12.0,0.,12.0,0.,12.0,0.,12.0
1979-07-16 03:48:53.690 ,2,0,1.,12.0,0.,12.0,0.,12.0,0.,12.0
1979-07-16 03:49:05.690 ,2,0,0.,12.0,0.,12.0,0.,12.0,0.,12.0
1979-07-16 03:49:17.690 ,2,0,0.,12.0,0.,12.0,0.,12.0,0.,12.0
1979-07-16 03:49:29.690 ,2,0,0.,12.0,0.,12.0,0.,12.0,0.,12.0
1979-07-16 03:49:41.690 ,3,0,0.,12.0,0.,12.0,0.,12.0,0.,12.0
1979-07-16 03:49:53.690 ,3,0,0.,12.0,0.,12.0,0.,12.0,0.,12.0
1979-07-16 03:50:05.690 ,3,0,0.,12.0,0.,12.0,0.,12.0,0.,12.0
1979-07-16 03:50:17.690 ,3,0,0.,12.0,0.,12.0,0.,12.0,0.,12.0
1979-07-16 03:50:29.690 ,4,0,0.,12.0,0.,12.0,0.,12.0,0.,12.0
1979-07-16 03:50:41.690 ,4,0,0.,12.0,0.,12.0,0.,12.0,0.,12.0
1979-07-16 03:50:53.690 ,4,0,0.,12.0,0.,12.0,0.,12.0,0.,12.0
1979-07-16 03:51:05.690 ,4,0,0.,12.0,0.,12.0,0.,12.0,0.,12.0
1979-07-16 03:51:17.690 ,5,0,0.,12.0,0.,12.0,0.,12.0,0.,12.0
1979-07-16 03:51:29.690 ,5,0,0.,12.0,0.,12.0,0.,12.0,0.,12.0
1979-07-16 03:51:41.690 ,5,0,0.,12.0,0.,12.0,0.,12.0,0.,12.0
1979-07-16 03:51:53.690 ,5,0,0.,12.0,0.,12.0,0.,12.0,0.,12.0
1979-07-16 03:52:05.690 ,6,0,0.,12.0,0.,12.0,0.,12.0,0.,12.0
1979-07-16 03:52:17.690 ,6,0,0.,12.0,0.,12.0,0.,12.0,0.,12.0
1979-07-16 03:52:29.690 ,6,0,0.,12.0,0.,12.0,0.,12.0,0.,12.0
1979-07-16 03:52:41.690 ,6,0,0.,12.0,0.,12.0,0.,12.0,0.,12.0
1979-07-16 03:52:53.690 ,7,0,0.,12.0,0.,12.0,0.,12.0,0.,12.0
1979-07-16 03:53:05.690 ,7,0,0.,12.0,0.,12.0,0.,12.0,0.,12.0
1979-07-16 03:53:17.690 ,7,0,0.,12.0,0.,12.0,0.,12.0,0.,12.0
1979-07-16 03:53:29.690 ,7,0,0.,12.0,0.,12.0,0.,12.0,0.,12.0
1979-07-16 03:53:41.690 ,7,0,0.,12.0,0.,12.0,0.,12.0,0.,12.0
1979-07-16 03:53:53.690 ,7,0,0.,12.0,0.,12.0,0.,12.0,0.,12.0
1979-07-16 03:54:05.690 ,7,0,0.,12.0,0.,12.0,0.,12.0,0.,12.0
1979-07-16 03:54:17.690 ,7,0,0.,12.0,0.,12.0,0.,12.0,0.,12.0
1979-07-16 03:54:29.690 ,6,0,0.,12.0,0.,12.0,0.,12.0,0.,12.0
1979-07-16 03:54:41.690 ,6,0,0.,12.0,0.,12.0,0.,12.0,0.,12.0
1979-07-16 04:04:29.690 ,5,0,0.,12.0,0.,12.0,0.,12.0,0.,12.0
1979-07-16 04:04:41.690 ,5,0,0.,12.0,0.,12.0,0.,12.0,0.,12.0
1979-07-16 04:04:53.690 ,6,0,0.,12.0,0.,12.0,0.,12.0,0.,12.0
1979-07-16 04:05:05.690 ,6,0,0.,12.0,0.,12.0,0.,12.0,0.,12.0
1979-07-16 04:05:17.690 ,6,0,0.,12.0,0.,12.0,0.,12.0,0.,12.0
1979-07-16 04:05:29.690 ,6,0,0.,12.0,0.,12.0,0.,12.0,0.,12.0
1979-07-16 04:05:41.690 ,7,0,0.,12.0,0.,12.0,0.,12.0,0.,12.0
1979-07-16 04:05:53.690 ,7,0,0.,12.0,0.,12.0,0.,12.0,0.,12.0
1979-07-16 04:06:05.690 ,7,0,0.,12.0,0.,12.0,0.,12.0,0.,12.0
1979-07-16 04:06:17.690 ,7,0,0.,12.0,0.,12.0,0.,12.0,0.,12.0
1979-07-16 04:06:29.690 ,7,0,0.,12.0,0.,12.0,0.,12.0,0.,12.0
1979-07-16 04:06:41.690 ,7,0,0.,12.0,0.,12.0,0.,12.0,0.,12.0
1979-07-16 04:06:53.690 ,7,0,0.,12.0,0.,12.0,0.,12.0,0.,12.0
1979-07-16 04:07:05.690 ,7,0,0.,12.0,0.,12.0,0.,12.0,0.,12.0
1979-07-16 04:07:17.690 ,6,0,0.,12.0,0.,12.0,0.,12.0,0.,12.0
1979-07-16 04:07:29.690 ,6,0,0.,12.0,0.,12.0,0.,12.0,0.,12.0
1979-07-16 04:07:41.690 ,6,0,0.,12.0,0.,12.0,0.,12.0,0.,12.0
1979-07-16 04:07:53.690 ,6,0,1.,12.0,0.,12.0,0.,12.0,0.,12.0
1979-07-16 04:08:05.690 ,5,0,0.,12.0,0.,12.0,0.,12.0,0.,12.0
1979-07-16 04:08:17.690 ,5,0,0.,12.0,0.,12.0,0.,12.0,0.,12.0
1979-07-16 04:08:29.690 ,5,0,0.,12.0,0.,12.0,0.,12.0,0.,12.0
1979-07-16 04:08:41.690 ,5,0,0.,12.0,0.,12.0,0.,12.0,0.,12.0
1979-07-16 04:08:53.690 ,4,0,1.,12.0,0.,12.0,0.,12.0,0.,12.0
1979-07-16 04:09:05.690 ,4,0,0.,12.0,0.,12.0,0.,12.0,0.,12.0
1979-07-16 04:09:17.690 ,4,0,0.,12.0,0.,12.0,0.,12.0,0.,12.0
1979-07-16 04:09:29.690 ,4,0,0.,12.0,0.,12.0,0.,12.0,0.,12.0
1979-07-16 04:09:41.690 ,3,0,0.,12.0,0.,12.0,0.,12.0,0.,12.0
1979-07-16 04:09:53.690 ,3,0,0.,12.0,0.,12.0,0.,12.0,0.,12.0
1979-07-16 04:10:05.690 ,3,0,0.,12.0,0.,12.0,0.,12.0,0.,12.0
1979-07-16 04:10:17.690 ,3,0,0.,12.0,0.,12.0,0.,12.0,0.,12.0
1979-07-16 04:10:29.690 ,2,0,0.,12.0,0.,12.0,0.,12.0,0.,12.0
1979-07-16 04:10:41.690 ,2,0,0.,12.0,0.,12.0,0.,12.0,0.,12.0
1979-07-16 04:10:53.690 ,2,0,0.,12.0,0.,12.0,0.,12.0,0.,12.0
1979-07-16 04:11:05.690 ,2,0,0.,12.0,0.,12.0,0.,12.0,0.,12.0
1979-07-16 04:11:17.690 ,1,0,0.,12.0,0.,12.0,0.,12.0,0.,12.0
1979-07-16 04:11:29.690 ,1,0,0.,12.0,0.,12.0,0.,12.0,0.,12.0
1979-07-16 04:11:41.690 ,1,0,0.,12.0,0.,12.0,0.,12.0,0.,12.0
1979-07-16 04:11:53.690 ,1,0,0.,12.0,0.,12.0,0.,12.0,0.,12.0
1979-07-16 04:12:05.690 ,0,0,0.,12.0,0.,12.0,0.,12.0,0.,12.0
1979-07-16 04:12:17.690 ,0,0,0.,12.0,0.,12.0,0.,12.0,0.,12.0
1979-07-16 04:12:29.690 ,0,0,0.,12.0,0.,12.0,0.,12.0,0.,12.0
1979-07-16 04:12:41.690 ,0,0,0.,12.0,0.,12.0,0.,12.0,0.,12.0
1979-07-16 04:12:53.690 ,0,0,0.,12.0,0.,12.0,0.,12.0,0.,12.0
1979-07-16 04:13:05.690 ,0,0,0.,12.0,0.,12.0,0.,12.0,0.,12.0
1979-07-16 04:13:17.690 ,0,0,0.,12.0,0.,12.0,0.,12.0,0.,12.0
1979-07-16 04:13:29.690 ,0,0,0.,12.0,0.,12.0,0.,12.0,0.,12.0
1979-07-16 04:13:41.690 ,1,0,0.,12.0,0.,12.0,0.,12.0,0.,12.0
1979-07-16 04:13:53.690 ,1,0,0.,12.0,0.,12.0,0.,12.0,0.,12.0
1979-07-16 04:14:05.690 ,1,0,0.,12.0,0.,12.0,0.,12.0,0.,12.0
1979-07-16 04:14:17.690 ,1,0,0.,12.0,0.,12.0,0.,12.0,0.,12.0
1979-07-16 04:14:29.690 ,2,0,0.,12.0,0.,12.0,0.,12.0,0.,12.0
1979-07-16 04:14:41.690 ,2,0,1.,12.0,0.,12.0,0.,12.0,0.,12.0
1979-07-16 04:14:53.690 ,2,0,0.,12.0,0.,12.0,0.,12.0,0.,12.0
1979-07-16 04:15:05.690 ,2,0,0.,12.0,0.,12.0,0.,12.0,0.,12.0
1979-07-16 04:15:17.690 ,3,0,0.,12.0,0.,12.0,0.,12.0,0.,12.0
1979-07-16 04:15:29.690 ,3,0,0.,12.0,0.,12.0,0.,12.0,0.,12.0
1979-07-16 04:15:41.690 ,3,0,0.,12.0,0.,12.0,0.,12.0,0.,12.0
1979-07-16 04:15:53.690 ,3,0,0.,12.0,0.,12.0,0.,12.0,0.,12.0
1979-07-16 04:16:05.690 ,4,0,0.,12.0,0.,12.0,0.,12.0,0.,12.0
1979-07-16 04:16:17.690 ,4,0,0.,12.0,0.,12.0,0.,12.0,0.,12.0
1979-07-16 04:16:29.690 ,4,0,0.,12.0,0.,12.0,0.,12.0,0.,12.0
1979-07-16 04:16:41.690 ,4,0,0.,12.0,0.,12.0,0.,12.0,0.,12.0
1979-07-16 04:16:53.690 ,5,0,0.,12.0,0.,12.0,0.,12.0,0.,12.0
1979-07-16 04:17:05.690 ,5,0,0.,12.0,0.,12.0,0.,12.0,0.,12.0
1979-07-16 04:17:17.690 ,5,0,0.,12.0,0.,12.0,0.,12.0,0.,12.0
1979-07-16 04:17:29.690 ,5,0,0.,12.0,0.,12.0,0.,12.0,0.,12.0
1979-07-16 04:17:41.690 ,6,0,0.,12.0,0.,12.0,0.,12.0,0.,12.0
1979-07-16 04:17:53.690 ,6,0,0.,12.0,0.,12.0,0.,12.0,0.,12.0
1979-07-16 04:18:05.690 ,6,0,0.,12.0,0.,12.0,0.,12.0,0.,12.0
1979-07-16 04:18:17.690 ,6,0,0.,12.0,0.,12.0,0.,12.0,0.,12.0
1979-07-16 04:18:29.690 ,7,0,0.,12.0,0.,12.0,0.,12.0,0.,12.0
1979-07-16 04:18:41.690 ,7,0,0.,12.0,0.,12.0,0.,12.0,0.,12.0
1979-07-16 04:18:53.690 ,7,0,0.,12.0,0.,12.0,0.,12.0,0.,12.0
1979-07-16 04:19:05.690 ,7,0,0.,12.0,0.,12.0,0.,12.0,0.,12.0
1979-07-16 04:19:17.690 ,3,1,0.,12.0,0.,12.0,0.,12.0,0.,12.0
1979-07-16 04:19:29.690 ,3,1,0.,12.0,0.,12.0,0.,12.0,0.,12.0
1979-07-16 04:19:41.690 ,0,1,0.,12.0,0.,12.0,0.,12.0,0.,12.0
1979-07-16 04:19:53.690 ,0,1,0.,12.0,0.,12.0,0.,12.0,0.,12.0
1979-07-16 04:20:05.690 ,4,1,1.,12.0,0.,12.0,0.,12.0,0.,12.0
1979-07-16 04:20:17.690 ,4,1,0.,12.0,0.,12.0,0.,12.0,0.,12.0
1979-07-16 04:20:29.690 ,7,1,0.,12.0,0.,12.0,0.,12.0,0.,12.0
1979-07-16 04:20:41.690 ,7,1,0.,12.0,0.,12.0,0.,12.0,0.,12.0
1979-07-16 04:20:53.690 ,3,1,0.,12.0,0.,12.0,0.,12.0,0.,12.0
1979-07-16 04:21:05.690 ,3,1,0.,12.0,0.,12.0,0.,12.0,0.,12.0
1979-07-16 04:21:17.690 ,0,1,0.,12.0,0.,12.0,0.,12.0,0.,12.0
1979-07-16 04:21:29.690 ,0,1,0.,12.0,0.,12.0,0.,12.0,0.,12.0
1979-07-16 04:21:41.690 ,4,1,0.,12.0,0.,12.0,0.,12.0,0.,12.0
1979-07-16 04:21:53.690 ,4,1,0.,12.0,0.,12.0,0.,12.0,0.,12.0
1979-07-16 04:22:05.690 ,7,1,0.,12.0,0.,12.0,0.,12.0,0.,12.0
1979-07-16 04:22:17.690 ,7,1,0.,12.0,0.,12.0,0.,12.0,0.,12.0
1979-07-16 04:22:29.690 ,3,1,0.,12.0,0.,12.0,0.,12.0,0.,12.0
1979-07-16 04:22:41.690 ,3,1,0.,12.0,0.,12.0,0.,12.0,0.,12.0
1979-07-16 04:22:53.690 ,0,1,0.,12.0,0.,12.0,0.,12.0,0.,12.0
1979-07-16 04:23:05.690 ,0,1,0.,12.0,0.,12.0,0.,12.0,0.,12.0
1979-07-16 04:23:17.690 ,4,1,0.,12.0,0.,12.0,0.,12.0,0.,12.0
1979-07-16 04:23:29.690 ,4,1,0.,12.0,0.,12.0,0.,12.0,0.,12.0
1979-07-16 04:23:41.690 ,7,1,0.,12.0,0.,12.0,0.,12.0,0.,12.0
1979-07-16 04:23:53.690 ,7,1,0.,12.0,0.,12.0,0.,12.0,0.,12.0
1979-07-16 04:24:05.690 ,3,1,0.,12.0,0.,12.0,0.,12.0,0.,12.0
1979-07-16 04:24:17.690 ,3,1,0.,12.0,0.,12.0,0.,12.0,0.,12.0
1979-07-16 04:24:29.690 ,0,1,0.,12.0,0.,12.0,0.,12.0,0.,12.0
1979-07-16 04:24:41.690 ,0,1,0.,12.0,0.,12.0,0.,12.0,0.,12.0
1979-07-16 04:24:53.690 ,4,1,0.,12.0,0.,12.0,0.,12.0,0.,12.0
1979-07-16 04:25:05.690 ,4,1,0.,12.0,0.,12.0,0.,12.0,0.,12.0
1979-07-16 04:25:17.690 ,7,1,0.,12.0,0.,12.0,0.,12.0,0.,12.0
1979-07-16 04:25:29.690 ,7,1,0.,12.0,0.,12.0,0.,12.0,0.,12.0
1979-07-16 04:25:41.690 ,3,1,0.,12.0,0.,12.0,0.,12.0,0.,12.0
1979-07-16 04:25:53.690 ,3,1,0.,12.0,0.,12.0,0.,12.0,0.,12.0
1979-07-16 04:26:05.690 ,0,1,0.,12.0,0.,12.0,0.,12.0,0.,12.0
1979-07-16 04:26:17.690 ,0,1,0.,12.0,0.,12.0,0.,12.0,0.,12.0
1979-07-16 04:26:29.690 ,4,1,0.,12.0,0.,12.0,0.,12.0,0.,12.0
1979-07-16 04:26:41.690 ,4,1,0.,12.0,0.,12.0,0.,12.0,0.,12.0
1979-07-16 04:26:53.690 ,7,1,0.,12.0,0.,12.0,0.,12.0,0.,12.0
1979-07-16 04:27:05.690 ,7,1,0.,12.0,0.,12.0,0.,12.0,0.,12.0